GFSMW_prec_radar_132.txt.gz
Reflectivity
-20 -20 -20 -20 -20 -20 -20 -20 -20 -20 -20 -20 -20 -20 -20 -20 -20 -20 -20 -20 -20 -20 10 -20 -20 -20 -20 -20 -20 -20 -20 -20 -20 -20 -20 -20 -20 -20 -13 1 3 28 47
-20 -20 -20 -20 -20 -20 -20 -20 -20 -20 -20 -20 -20 -20 -20 -20 -20 -20 -20 -20 -20 -1 -3 -20 -20 -20 -20 -20 -20 -20 -18 -20 -20 -20 -20 -18 -20 -20 10 -20 -20 -20 16
-20 -20 -20 -20 -20 -20 -20 -20 -20 -20 -20 -20 -20 -20 -20 -20 -20 -20 -20 -20 -20 -20 -20 -20 -20 -20 -20 -20 -20 -20 -20 -20 -20 -20 4 5 -16 -20 -20 -12 -20 6 -4
-20 -20 -20 -20 -20 -20 -20 -20 -20 -20 -20 -20 -20 -20 -20 -20 -20 -20 -20 -20 -20 -20 -20 -20 -20 -20 -20 -20 -20 -19 -16 -2 1 -20 -20 -20 3 6 -6 -20 -20 -20 -20
-20 -20 -20 -20 -20 -20 -20 -20 -20 -20 -20 -20 -20 -20 -20 -20 -20 -20 -20 -20 -20 -20 -20 -20 -20 -20 -20 -20 -12 -12 -10 -12 4 0 1 -10 -12 -20 -4 -19 -20 -20 -20
-20 -20 -20 -20 -20 -20 -20 -20 -20 -20 -20 -20 -20 -20 -20 -20 -20 -20 -20 -20 -20 -20 -20 -20 -20 -20 -20 -20 -20 -11 -20 -20 -1 2 15 9 10 -5 17 14 -17 -20 -20
-20 -20 -20 -20 -20 -20 -20 -20 -20 -20 -20 -20 -20 -20 -20 -20 -20 -20 -20 -20 -20 -20 -20 -18 -17 -20 -20 -20 -20 -20 -20 -20 -15 -8 3 -3 -7 4 7 7 15 12 -20
-20 -20 -20 -20 -20 -20 -20 -20 -20 -20 -20 -20 -20 -20 -20 -20 -20 -20 -20 -7 -20 -20 -19 -2 -20 -20 -20 -20 -16 -17 -16 -20 -8 -20 -20 -20 -0 0 0 1 10 -16 -20
-20 -20 -20 -20 -20 -20 -20 -20 -20 -20 -20 -20 -20 -20 -20 -20 -20 -15 -20 -20 -20 -14 -20 -20 -7 -19 -17 -20 -4 -4 -20 -20 -20 -20 -15 -14 -20 -5 0 8 16 12 0
-20 -20 -20 -20 -20 -20 -20 -20 -20 -20 -20 -20 -20 -20 -20 -20 -20 -20 -20 -8 -20 -20 -20 -12 3 -3 -13 -5 -6 -12 -20 -10 -20 -13 -20 -3 -1 -13 4 2 9 13 2
-20 -20 -20 -20 -20 -20 -20 -20 -20 -20 -20 -20 -20 -20 -20 -20 -20 -19 -20 -7 -20 -20 -20 -20 -16 -8 1 11 6 -6 -20 -17 -8 -12 1 6 8 12 12 13 14 8 7
-20 -20 -20 -20 -20 -20 -20 -20 -20 -20 -20 -20 -20 -20 -20 -20 -20 -20 -20 -20 -20 -20 -20 -20 -20 -20 8 12 10 3 -1 3 4 5 -9 1 11 14 6 16 16 13 13
-20 -20 -20 -20 -20 -20 -20 -20 -20 -20 -20 -20 -20 -20 -20 -20 -20 -20 -20 -20 -20 -20 -19 -20 -19 1 -6 0 -15 -20 -20 -13 -20 -10 -8 -4 -19 -20 1 10 5 6 8
-20 -20 -20 -20 -20 -20 -20 -20 -20 -20 -20 -20 -20 -20 -20 -20 -20 -20 -20 -20 -20 -20 -16 -18 -20 -1 8 -0 -13 -10 -16 -20 -20 -20 -1 -15 -14 -17 5 -10 -18 -19 -17
-20 -20 -20 -20 -20 -20 -20 -20 -20 -20 -20 -20 -20 -20 -20 -20 -20 -20 -20 -20 -20 -20 -20 -20 -20 -20 -3 -0 -16 -6 -20 -20 -20 -20 -20 -20 -20 -6 -2 6 2 -8 -20
-20 -20 -20 -20 -20 -20 -20 -20 -20 -20 -20 -20 -20 -20 -20 -20 -20 -20 -20 -20 -20 -20 -20 -20 -20 -20 -20 -20 -20 -20 -20 -20 -20 -20 -20 -20 -20 -20 -20 -20 -20 -2 -2
-20 -20 -20 -20 -20 -20 -19 -8 -20 -20 -20 -20 -20 -20 -20 -20 -20 -20 -20 -20 -20 -20 -20 -20 -12 -20 -20 -20 -20 -17 -18 -19 -14 -20 -20 -20 -20 -20 -20 -20 -20 -9 7
-20 -20 -20 -20 -20 -15 6 9 -16 -20 -20 -20 -20 -20 -20 -20 -20 -20 -16 -3 -20 -20 -20 -20 -20 -19 -20 -20 -20 -20 -20 -1 -14 -19 -20 -20 -20 -20 -20 -20 -20 -20 -20
-20 -20 -20 -20 -5 16 -9 -20 -20 -20 -20 -20 -20 -20 -20 -20 -20 -20 -20 -7 -4 -16 -20 -20 -20 -20 -20 -20 -20 -20 -20 -20 -17 -20 -20 -20 -20 -20 -20 -20 -20 -20 -20
-20 -20 -20 -20 -5 21 18 -20 -20 -20 -20 -20 -20 -20 -20 -20 -20 -13 -20 -18 -19 -20 -3 -20 -20 -12 -20 -20 -20 -20 -20 -20 -20 -20 -20 -20 -20 -20 -20 -20 -20 -20 -20
-20 -20 -20 -12 15 17 -15 -20 -20 -20 -20 -20 -20 -20 -20 -10 -15 -20 -20 -20 -19 -19 2 -6 -20 -20 -20 -20 -20 -20 -20 -8 -8 -20 -20 -20 -20 -20 -20 -20 -20 -20 -20
-20 -19 -20 9 22 -17 -16 -20 -20 -20 -20 -20 -20 -20 -20 -20 -20 -18 -19 -20 -5 -17 -12 -8 -20 -20 -20 -20 -20 -20 -19 -20 -7 -9 -20 -20 -20 -20 -20 -20 -20 -20 -20
-18 -10 4 13 -19 -20 -20 -20 -20 -20 -20 -20 -20 -20 -20 -20 -20 -20 -19 -20 -20 -20 -6 -20 -19 -20 -20 -20 -20 -20 -20 -20 -20 -3 -16 -19 -20 -20 -20 -20 -20 -20 -20
-20 -20 -19 -20 -20 -20 -20 -20 -20 -20 -20 -20 -20 -20 -20 -20 -20 -20 -20 -20 -20 -20 -20 -17 -20 -20 -20 -20 -20 -20 -20 -20 -20 -11 -20 -20 -20 -20 -20 -20 -20 -20 -20
-20 -20 -20 -19 -20 -20 -20 -20 -20 -20 -20 -20 -20 -20 -20 -20 -20 -20 -20 -20 -20 -20 -20 -20 -10 -20 -20 -16 -5 -13 -20 -20 -20 -20 -20 -20 -20 -20 -20 -20 -20 -20 -20
-20 -17 -15 -19 -20 -20 -20 -20 -20 -20 -20 -20 -20 -20 -20 -20 -20 -20 -20 -20 -20 -20 -20 -20 -20 -17 -15 -15 -20 -16 -4 -20 -20 -20 -20 -20 -20 -20 -20 -20 -20 -20 -20

GFSMW_prec_radar_138.txt.gz
Reflectivity
-20 -20 -20 -20 -20 -20 -20 -20 -20 -20 -20 -20 -20 -20 -20 -20 -20 -20 -20 -20 -20 -20 -20 -20 -20 -20 -20 -20 -20 -20 -20 -20 -20 -20 -20 -20 -20 -20 -20 -20 -20 -20 -20
-20 -20 -20 -20 -20 -20 -20 -20 -20 -20 -20 -20 -20 -20 -20 -20 -20 -20 -20 -20 -20 -20 -20 -20 -20 -20 -20 -20 -20 -20 -20 -20 -20 -20 -20 -20 -20 -20 -20 -20 -20 -20 -20
-20 -20 -20 -20 -20 -20 -20 -20 -20 -20 -20 -20 -20 -20 -20 -20 -20 -20 -20 -20 -20 -20 -20 -20 -20 -20 -20 -20 -20 -20 -20 -15 -20 -20 -16 -20 -20 -20 -20 -20 -20 -20 -20
-20 -20 -20 -20 -20 -20 -20 -20 -20 -20 -20 -20 -20 -20 -20 -20 -20 -20 -20 -20 -20 -20 -20 -20 -20 -20 -20 -20 -20 -20 -20 -20 -20 -20 -18 -20 -19 -5 -20 -20 -20 -20 -20
-20 -20 -20 -20 -20 -20 -20 -20 -20 -20 -20 -20 -20 -20 -20 -20 -20 -20 -20 -20 -20 -20 -20 -20 -20 -20 -20 -20 -20 -20 -20 -12 -8 -4 -5 -20 -20 -18 1 -20 -20 -20 -20
-20 -20 -20 -20 -20 -20 -20 -20 -20 -20 -20 -20 -20 -20 -20 -20 -20 -20 -20 -20 -20 -20 -20 -20 -20 -20 -20 -20 -20 -19 -20 -20 -20 -10 8 -9 3 -20 -2 -17 -20 -20 -20
-20 -20 -20 -20 -20 -20 -20 -20 -20 -20 -20 -20 -20 -20 -20 -20 -20 -20 -20 -20 -20 -20 -20 -20 -20 -20 -20 -20 -20 -20 -20 -20 -16 -20 -20 -20 -18 -20 -18 -3 -20 -20 -20
-20 -20 -20 -20 -20 -20 -20 -20 -20 -20 -20 -20 -20 -20 -20 -20 -20 -20 -20 -20 -20 -20 -20 -20 -20 -20 -20 -20 -20 -20 -20 -19 -20 -20 -20 -17 4 -20 -20 -1 -3 -20 -20
-20 -20 -20 -20 -20 -20 -20 -20 -20 -20 -20 -20 -20 -20 -20 -20 -20 -20 -20 -20 -20 -20 -20 -20 -20 -20 -20 -20 -11 0 3 4 -15 -5 -9 -3 10 9 6 2 3 10 4
-20 -20 -20 -20 -20 -20 -20 -20 -20 -20 -20 -20 -20 -20 -20 -20 -20 -20 -20 -20 -20 -20 -20 -20 -20 -20 -20 -20 -6 -13 1 7 -5 7 4 -4 5 10 2 3 -10 -11 -9
-20 -20 -20 -20 -20 -20 -20 -20 -20 -20 -20 -20 -20 -20 -20 -20 -20 -20 -20 -20 -20 -20 -20 -20 -20 -20 -20 -20 -20 -19 -17 -10 -1 9 16 16 -9 0 5 -6 0 -1 4
-20 -20 -20 -20 -20 -20 -20 -20 -20 -20 -20 -20 -20 -20 -20 -20 -20 -20 -20 -20 -20 -20 -20 -20 -20 -20 -20 -20 -20 -20 -20 -20 -19 -10 11 11 -8 -20 1 -2 -2 -17 -2
-20 -20 -20 -20 -19 -19 -20 -20 -20 -20 -20 -20 -20 -20 -20 -20 -20 -20 -20 -20 -20 -20 -20 -20 -20 -20 -20 -20 -20 -20 -20 -20 -19 -17 -18 -5 -16 -15 -5 -7 -1 -20 -20
-20 -20 -20 -20 8 -14 -20 -20 -20 -20 -20 -20 -20 -20 -20 -20 -20 -20 -20 -20 -20 -20 -20 -20 -20 -20 -20 -20 -20 -20 -20 -20 -20 -8 -2 -1 6 -3 -12 -16 -2 -13 -17
-12 -5 18 18 10 9 14 -6 -20 -20 -20 -20 -20 -20 -20 -20 -20 -20 -20 -20 -20 -20 -20 -20 -20 -20 -3 -20 -20 -20 -20 -20 -20 -17 4 -3 -3 -3 -14 -1 2 0 -17
6 17 26 8 11 8 12 2 -20 -20 -20 -20 -20 -20 -20 -20 -20 -20 -20 -20 -20 -20 -20 -20 -20 -20 -18 5 -20 -19 -20 -20 -20 -20 -20 -20 -17 -12 -17 -4 -20 -3 -1
4 22 6 11 12 10 19 -20 -20 -20 -20 -20 -20 -20 -20 -20 -20 -20 -20 -20 -20 -20 -20 -20 -20 -20 -18 -7 -10 -20 -20 -20 -20 -20 -20 -20 -20 -20 -20 -20 -20 -20 -4
-12 5 -1 13 25 20 11 -18 -20 -20 -20 -20 -20 -20 -20 -20 -20 -20 -20 -20 -20 -20 -20 -20 -20 -20 -20 -11 -20 -20 -20 -20 -20 -20 -20 -20 -20 -20 -20 -20 -20 -20 -20
-15 7 -13 21 26 -1 -20 -20 -20 -20 -20 -20 -19 -20 -20 -20 -20 -20 -20 -20 -20 -20 -20 -20 -20 -20 -20 -20 -20 -20 -20 -20 -20 -20 -20 -20 -20 -12 -20 -20 -20 -20 -20
-20 -11 13 23 10 -20 -18 -20 -20 -20 -20 -20 -20 -20 -20 -20 -20 -20 -20 -20 -20 -20 -20 -20 -20 -20 -20 -20 -20 -20 -20 -20 -20 -20 -20 -20 -20 -20 -20 -20 -20 -20 -20
-20 -20 -18 -20 -20 -20 -20 -20 -20 -20 -19 -20 -20 -20 -20 -20 -20 -20 -20 -20 -20 -20 -20 -20 -20 -20 -20 -20 -11 -20 -20 -20 -20 -20 -20 -20 -20 -20 -20 -20 -20 -20 -20
-19 -6 -20 -20 -20 -18 -18 -20 -20 6 -12 -20 -20 -20 -20 -20 -20 -20 -20 -17 -20 -20 -20 -20 -20 -20 -20 -20 -20 -15 -5 -20 -20 -20 -20 -20 -20 -20 -20 -20 -20 -20 -20
6 -20 -20 -20 -19 -20 -15 -20 -10 -4 -20 -20 -20 -20 -20 -20 -20 -20 -20 -19 -20 -20 -20 -20 -20 -20 -20 -20 -20 -20 -20 -20 -20 -20 -20 -20 -20 -20 -20 -20 -20 -20 -20
-20 -20 -20 -11 2 -20 -20 -15 11 -20 -20 -20 -20 -20 -20 -20 -20 -20 -20 -20 -20 -20 -20 -20 -20 -20 -20 -20 -20 -20 -20 -20 -20 -20 -20 -20 -20 -20 -20 -20 -20 -20 -20
-20 -20 -20 -8 -7 -19 -18 -17 -14 -20 -20 -20 -20 -20 -20 -20 -20 -20 -20 -20 -20 -20 -20 -20 -20 -20 -20 -20 -11 -20 -20 -20 -20 -20 -20 -20 -20 -20 -20 -20 -20 -20 -20
-20 -20 -20 -20 -18 -15 -14 -15 -18 -20 -20 -20 -20 -20 -20 -20 -20 -20 -20 -20 -20 -20 -20 -20 -20 -20 -20 -20 -3 -20 -20 -20 -20 -20 -20 -20 -20 -20 -20 -20 -20 -20 -20

GFSMW_prec_radar_141.txt.gz
Reflectivity
-20 1 -10 -20 -20 -20 -20 -20 -20 -20 -20 -20 -20 -20 -20 -20 -20 -20 -20 -20 -20 -20 -20 -20 -20 -20 -20 -20 -20 -20 -20 -20 -20 -20 -20 -20 -20 -20 -20 -20 -20 15 5
-20 -10 -20 -20 -20 -20 -20 -20 -20 -20 -20 -20 -20 -20 -20 -20 -20 -20 -20 -20 -20 -20 -20 -20 -20 -20 -20 -20 -20 -20 -20 -20 -20 -20 -20 -20 -20 -20 -20 -20 -20 -20 -20
-20 -20 -20 -20 -20 -20 -20 -20 -20 -20 -20 -20 -20 -20 -20 -20 -20 -20 -20 -20 -20 -20 -20 -20 -20 -20 -20 -20 -20 -20 -20 -20 -20 -20 -18 -20 -20 -20 -20 -20 -20 -20 -20
-20 -20 -20 -20 -20 -20 -20 -20 -20 -20 -20 -20 -20 -20 -20 -20 -20 -20 -20 -20 -20 -20 -20 -20 -20 -20 -20 -20 -20 -20 -20 -20 -20 -20 -20 -20 -6 -3 -20 -20 -20 -20 -20
-20 -20 -20 -20 -20 -20 -20 -20 -20 -20 -20 -20 -20 -20 -20 -20 -20 -20 -20 -20 -20 -20 -20 -20 -20 -20 -20 -20 -20 -20 -20 -20 -3 -9 -3 -20 -17 -1 8 -19 -20 -20 -20
-20 -20 -20 -20 -20 -20 -20 -20 -20 -20 -20 -20 -20 -20 -20 -20 -20 -20 -20 -20 -20 -20 -20 -20 -20 -20 -20 -20 -20 -20 -20 -20 -20 -20 -2 -14 7 -8 3 4 -1 -20 -19
-20 -20 -20 -20 -20 -20 -20 -20 -20 -20 -20 -20 -20 -20 -20 -20 -20 -20 -20 -20 -20 -20 -20 -20 -20 -20 -20 -20 -20 -20 -20 -20 -20 -20 -20 -20 -20 -10 -5 -12 6 -20 -20
-20 -20 -20 -20 -20 -20 -20 -20 -20 -20 -20 -20 -20 -20 -20 -20 -20 -20 -20 -20 -20 -20 -20 -20 -20 -20 -20 -20 -20 -6 1 -20 -20 -20 -18 -18 -10 7 10 9 5 -9 -5
-20 -20 -20 -20 -20 -20 -20 -20 -20 -20 -20 -20 -20 -20 -20 -20 -20 -20 -20 -20 -20 -20 -20 -20 -20 -20 -20 -20 -20 -18 -1 -20 -14 -20 -20 -10 -7 10 15 11 11 17 1
-20 -20 -20 -20 -20 -20 -20 -20 -20 -20 -20 -20 -20 -20 -20 -20 -20 -20 -20 -20 -20 -20 -20 -20 -20 -20 -20 -20 -20 -20 -20 -20 -20 -20 -20 -20 -20 13 12 13 13 15 15
-20 -20 -20 -20 -20 -20 -20 -20 -20 -20 -20 -20 -20 -20 -20 -20 -20 -20 -20 -20 -20 -20 -20 -20 -20 -20 -20 -20 -20 -20 -20 -20 -20 -20 -20 -20 -1 4 14 18 1 7 12
-20 -20 -20 -20 -20 -20 -20 -20 -20 -20 -20 -20 -20 -20 -20 -20 -20 -20 -20 -20 -20 -20 -20 -20 -20 -20 -20 -20 -20 -20 -20 -20 -20 -20 -20 -20 -3 7 12 21 22 14 7
-20 -20 -20 -20 -20 -20 -20 -20 -20 -20 -20 -20 -20 -20 -20 -20 -20 -20 -20 -20 -20 -20 -20 -20 -20 -20 -20 -20 -20 -20 -20 -20 -20 -20 -20 -17 -5 2 5 7 6 -13 -18
-20 -20 -20 -20 -20 -20 -20 -20 -20 -20 -20 -20 -20 -20 -20 -20 -20 -20 -20 -20 -20 -20 -20 -20 -20 -20 -20 -20 -20 -20 -20 -20 -20 -20 -20 -20 -4 -2 -4 2 -3 -4 4
-20 -20 -20 -20 -20 -19 -7 -1 2 -19 -20 -20 -20 -20 -20 -20 -20 -20 -20 -20 -20 -20 -20 -20 -20 -10 -20 -20 -20 -20 -20 -20 -20 -20 -20 -20 -10 -1 3 -1 1 -20 -20
-20 5 -20 4 37 33 29 21 5 6 6 1 -20 -20 -20 -20 -20 -20 -20 -20 -20 -20 -20 -20 -20 -20 -4 -20 -20 -20 -20 -20 -20 -20 -20 -20 -20 -20 -8 -2 1 -1 -7
-13 -7 -20 -19 -9 -5 -2 12 10 21 6 -20 -20 -20 -20 -20 -20 -20 -20 -20 -20 -20 -20 -20 -20 -20 -20 -20 -20 -20 -20 -20 -20 -20 -20 -20 -20 -20 -20 -20 -20 -3 -4
-1 -14 -17 -5 -3 -16 -20 25 34 29 -6 -10 -20 -20 -20 -20 -20 -20 -20 -20 -20 -20 -20 -20 -20 -20 -20 -20 -20 -20 -20 -20 -20 -20 -20 -20 -20 -20 -20 -20 -20 -20 -20
-20 -20 -20 -20 -20 -3 7 35 13 17 18 -20 -20 -20 -20 -20 -20 -20 -20 -20 -20 -20 -20 -20 -20 -20 -20 -12 -20 -20 -20 -20 -20 -20 -20 -20 -20 -20 -20 -20 -20 -20 -20
-1 -14 -20 -15 -20 -20 25 -10 -1 15 -20 -20 -20 -20 -20 -20 -20 -20 -20 -20 -20 -20 -20 -20 -20 -20 -20 -4 -20 -20 -20 -20 -20 -20 -20 -3 -18 -3 -20 -20 -20 -20 -20
-20 -20 -5 -20 -20 -20 -20 -20 6 -20 -20 -20 -20 -20 -20 -20 -20 -20 -20 -20 -20 -20 -20 -20 -20 -20 -20 -16 -16 -20 -20 -20 -20 -20 -20 -20 -8 -5 -12 -20 -20 -20 -20
-20 -20 -16 -20 -20 -20 -20 -20 -16 -20 -19 -19 -19 -20 -20 -20 -20 -20 -20 -20 -20 -20 -20 -20 -20 -20 -20 -20 -5 -19 -20 -20 -20 -20 -20 -20 -20 -14 -20 -20 -20 -20 -20
-20 -20 -20 -17 -20 -20 -20 -3 -20 -19 -19 -20 -20 -20 -20 -20 -20 -20 -20 -20 -20 -20 -20 -20 -20 -20 -20 -20 -20 -7 -20 -20 -20 -20 -20 -20 -20 -20 -20 -20 -20 -20 -20
-20 -20 -20 -20 -20 -17 -11 -3 -1 -17 -17 -19 -20 -20 -20 -20 -20 -20 -20 -20 -20 -20 -20 -20 -20 -20 -20 -20 -20 -20 -20 -20 -20 -20 -20 -20 -20 -20 -20 -20 -20 -20 -20
-20 -20 -20 -20 -19 -13 -11 -11 -3 -1 -9 -20 -20 -20 -20 -20 -20 -20 -20 -20 -20 -20 -20 -20 -20 -20 -20 -20 -20 -20 -20 -20 -20 -20 -20 -20 -20 -20 -20 -20 -20 -20 -20
-20 -20 -20 -20 -20 -15 -5 8 -7 -5 -14 -18 -12 -20 -20 -20 -20 -20 -20 -20 -20 -20 -20 -20 -20 -20 -19 -0 -20 -20 -20 -20 -20 -20 -20 -20 -20 -20 -20 -20 -20 -20 -20

GFSMW_prec_radar_147.txt.gz
Reflectivity
-20 -20 -20 -20 -20 -20 -20 -20 -20 -20 -20 -20 -20 -20 -20 -20 -20 -20 -20 -20 -20 -20 -20 -20 -20 -20 -20 -20 -20 -20 -20 -20 -20 -20 -20 -20 -20 -20 -20 -20 -20 -20 -20
-20 -20 -20 -20 -20 -20 -20 -20 -20 -20 -20 -20 -20 -20 -20 -20 -20 -20 -20 -20 -20 -20 -20 -20 -20 -20 -20 -20 -20 -20 -20 -20 -20 -20 -20 -20 -20 -20 -20 -20 -20 -20 -20
-20 -20 -20 -20 -20 -20 -20 -20 -20 -20 -20 -20 -20 -20 -20 -20 -20 -20 -20 -20 -20 -20 -20 -20 -20 -20 -20 -20 -20 -20 -20 -20 -20 -20 -20 -20 -17 -20 -20 -20 -20 -20 -20
-20 -20 -20 -20 -20 -20 -20 -20 -20 -20 -20 -20 -20 -20 -20 -20 -20 -20 -20 -20 -20 -20 -20 -20 -20 -20 -20 -20 -20 -20 -20 -20 -20 -20 -20 -20 0 4 -8 -20 -20 -20 -20
-20 -20 -20 -20 -20 -20 -20 -20 -20 -20 -20 -20 -20 -20 -20 -20 -20 -20 -20 -20 -20 -20 -20 -20 -20 -20 -20 -20 -20 -20 -20 -20 -20 -20 -20 -20 -20 -20 -9 -20 -20 -20 -20
-20 -20 -20 -20 -20 -20 -20 -20 -20 -20 -20 -20 -20 -20 -20 -20 -20 -20 -20 -20 -20 -20 -20 -20 -20 -20 -20 -20 -20 -20 -20 -20 -20 -20 -20 -8 1 -1 -0 -8 -18 -20 -20
-20 -20 -20 -20 -20 -20 -20 -16 -20 -20 -20 -20 -20 -20 -20 -20 -20 -20 -20 -20 -20 -20 -20 -20 -20 -20 -20 -20 -20 -20 -20 -20 -20 -20 -20 -9 -3 0 -1 -0 -0 -0 -20
-20 -20 -20 -20 -20 -20 -20 -20 -20 -20 -20 -20 -20 -20 -20 -20 -20 -20 -20 -20 -20 -20 -20 -20 -0 -20 -20 -20 -20 -20 -20 -20 -20 -20 -20 -20 -19 1 -0 5 -17 -4 -20
-20 -20 -20 -20 -20 -19 -20 -20 -20 -20 -20 -20 -20 -20 -20 -20 -20 -20 -20 -20 -20 -20 -20 -20 -20 -20 -20 -20 -20 -20 -20 -20 -20 -20 -20 -20 -11 1 -7 -13 5 2 -1
-20 -20 -20 -20 -20 -20 -20 -20 -20 -20 -20 -20 -20 -20 -20 -20 -20 -20 -20 -20 -20 -20 -20 -20 -20 -20 -20 -20 -20 -20 -20 -20 -20 -20 -20 -20 -20 -20 -14 -7 -2 5 -3
-20 -20 -20 5 -14 -20 -20 -20 -20 -20 -20 -20 -20 -20 -20 -20 -20 -20 -20 -20 -20 -20 -20 -20 -20 -20 -20 -20 -20 -20 -20 -20 -20 -20 -20 -20 -17 -20 -4 -12 -2 -3 -2
-20 -20 -20 -18 -4 -20 -20 -20 -20 -20 -20 -20 -20 1 -12 -5 -20 -20 -20 -20 -20 -20 -20 -20 -20 -20 -20 -20 -20 -20 -20 -20 -20 -20 -20 -20 -20 -20 -19 -9 -1 -4 -5
-20 -12 5 7 -18 -20 -17 -9 -10 -4 2 2 10 0 -13 -20 -20 -20 -20 -20 -20 -20 -20 -20 -20 -20 -20 -20 -20 -20 -20 -20 -20 -20 -20 -20 -20 -20 -20 -20 -20 -20 -20
-20 -20 -18 4 12 7 11 -12 -20 -14 -7 22 3 6 -19 -20 -11 -10 -20 -20 -20 -20 -20 -20 -20 -20 -20 -20 -20 -20 -20 -20 -20 -20 -20 -20 -20 -20 -20 -20 -20 -20 -20
-13 -10 -16 -19 -16 1 1 -18 -16 7 13 6 18 -18 -16 -20 -20 -20 -20 -20 -20 -20 -20 -20 -20 -20 -20 -20 -20 -20 -20 -20 -20 -20 -20 -20 -20 -20 -13 -20 -20 -20 -18
-20 -20 -1 -9 -14 -7 -11 10 5 16 28 12 2 4 -20 -20 -20 -20 -20 -20 -20 -20 -20 -20 -20 -20 -20 -20 -20 -20 -20 -20 -20 -20 -20 -20 -20 -20 -20 -20 -20 -20 -20
-20 -20 -20 10 15 23 31 27 21 12 8 2 -3 8 11 4 -3 1 -18 -20 -20 -20 -20 -20 -20 -20 -20 -20 -20 -20 -20 -20 -20 -20 -20 -20 -20 -20 -20 -20 -20 -20 -20
11 -2 -3 27 21 32 33 25 13 30 18 4 15 20 19 4 -20 -20 -20 -20 -20 -20 -20 -20 -20 -20 -20 -20 -20 -20 -20 -20 -12 -20 -20 -20 -20 -20 -20 -20 -20 -20 -20
24 34 30 32 29 36 38 34 38 31 0 22 23 20 14 10 6 -17 -20 -20 -20 -20 -20 -20 -20 -20 -20 -20 -20 -20 -20 0 2 2 -8 -20 -20 -20 -20 -20 -20 -20 -20
-7 20 34 29 31 33 35 30 20 14 27 29 19 16 12 -17 -16 -20 -20 -20 -20 -20 -20 -20 -20 -20 -20 -20 -20 -20 -20 -20 -20 -20 -19 -20 -20 -20 -20 -20 -20 -20 -20
19 5 9 -0 15 25 21 36 27 26 24 34 17 7 2 -12 -20 -20 -20 -20 -20 -20 -20 -20 -20 -20 -20 -20 -20 -20 -20 -20 -20 -20 -2 -20 -20 -20 -20 -20 -20 -20 -20
-9 -19 -19 2 -15 1 -11 -4 7 20 34 18 17 -19 -20 -20 -20 -20 -20 -20 -20 -20 -20 -20 -20 -20 -10 -7 -11 -20 -20 -20 -20 -20 -14 -20 -20 -20 -20 -20 -20 -20 -20
-20 -20 -20 -20 -5 -8 -17 -10 3 13 12 29 13 -20 -20 -20 -20 -20 -20 -20 -20 -20 -20 -20 -9 -20 -17 6 -1 -3 -20 -20 -20 -20 -20 -20 -20 -20 -20 -20 -20 -20 -20
-20 -20 -20 -20 -4 6 -12 -20 -0 28 22 5 -12 -20 -20 -20 -20 -20 -20 -20 -20 -20 -20 -20 -20 -20 -20 -20 -3 1 -18 -20 -20 -20 -20 -20 -20 -20 -20 -20 -20 -20 -20
-20 -20 -20 -20 -20 -10 -20 -20 9 11 18 24 19 -6 -20 -20 -20 -20 -20 -20 -20 -20 -20 -20 -20 -20 -9 -12 -20 -20 -20 -20 -20 -20 -20 -20 -20 -20 -20 -20 -20 -20 -20
-20 -20 -20 -20 -20 -20 -19 -15 4 12 -11 1 -12 -14 -10 -20 -20 -20 -20 -20 -20 -20 -20 -20 -20 -20 -20 -20 -20 -20 -20 -20 -20 -20 -20 -20 -20 -20 -20 -20 -20 -20 -20

GFSMW_prec_radar_153.txt.gz
Reflectivity
-20 -20 -20 -20 -20 -20 -20 -20 -20 -20 -20 -20 -20 -20 -20 -20 -20 -20 -20 -20 -20 -20 -20 -20 -20 -20 -20 -20 -20 -20 -20 -20 -20 -20 -20 -20 -20 -20 -20 -20 -20 -20 -20
-20 -20 -20 -20 -20 -20 -20 -20 -20 -20 -20 -20 -20 -20 -20 -20 -20 -20 -20 -20 -20 -20 -20 -20 -20 -20 -20 -20 -20 -20 -20 -20 -20 -20 -20 -20 -20 -20 -20 -20 -20 -20 -20
-20 -20 -20 -20 -20 -20 -20 -20 -20 -20 -20 -20 -20 -20 -20 -20 -20 -20 -20 -20 -20 -20 -20 -20 -20 -20 -20 -20 -20 -20 -20 -20 -20 -20 -20 -20 -20 -20 -20 -20 -20 -20 -20
-20 -20 -20 -20 -20 -20 -20 -20 -20 -20 -20 -20 -20 -20 -20 -20 -20 -20 -20 -20 -20 -20 -20 -20 -20 -20 -20 -20 -20 -20 -20 -20 -20 -20 -20 -20 -20 -20 -20 -20 -20 -20 -20
-20 -20 -20 -20 -20 -20 -20 -20 -20 -20 -20 -20 -20 -20 -20 -20 -20 -20 -20 -20 -20 -20 -20 -20 -20 -20 -20 -20 -20 -20 -20 -20 -20 -20 -20 -20 -20 -20 -20 -20 -20 -20 -20
-20 -20 -20 -20 -20 -20 -20 -20 -20 -20 -20 -20 -20 -20 -20 -20 -20 -20 -20 -20 -20 -20 -20 -20 -20 -20 -20 -20 -20 -20 -20 -20 -20 -20 -20 -20 -20 -20 -20 -20 -20 -20 -20
-20 -20 -20 -20 -20 -20 -20 -20 -20 -20 -20 -20 -20 -20 -20 -20 -20 -20 -20 -20 -20 -20 -20 -20 -20 -20 -20 -20 -20 -20 -20 -20 -20 -20 -20 -20 -20 -8 -20 -20 -20 -20 -20
-20 -20 -20 -20 -20 -20 -20 -20 -20 -20 -20 -20 -20 -20 -20 -20 -20 -20 -20 -20 -20 -20 -20 -20 -20 -20 -20 -20 -20 -20 -20 -20 -20 -20 -20 -20 -20 -20 -20 -20 -20 -20 -20
-20 -20 -20 -20 -20 -20 -20 -20 -20 -20 -20 -20 -20 -20 -20 -20 -20 -20 -20 -20 -20 -20 -20 -20 -20 -20 -20 -20 -20 -20 -20 -20 -20 -20 -20 -20 -20 -20 -20 -20 -9 -2 -19
-20 -20 -20 -20 -20 -20 -20 -20 -20 -20 -20 -18 -12 -8 -13 -20 -20 -20 -20 -20 -20 -20 -20 -20 -20 -20 -20 -20 -20 -20 -20 -20 -20 -20 -20 -20 -20 -20 -20 -20 -15 -2 -18
-20 -20 -20 -20 -20 -20 -20 -20 -16 -3 -2 8 12 8 8 6 -13 -20 -20 -18 -20 -15 -19 -19 -5 5 -3 -20 -20 -20 -20 -20 -20 -20 -20 -20 -20 -20 -20 -20 -20 -20 -20
-20 -20 -20 -20 -20 -20 -20 -20 -20 -20 -20 -20 -17 -20 -18 -20 -19 -11 4 8 5 -5 -20 19 15 -2 -20 -20 -20 -20 -20 -20 -20 -20 -20 -20 -20 -20 -20 -20 -20 -20 -20
-20 -20 -20 -20 -20 -20 -20 -20 -20 -20 -20 -20 -20 -20 -20 -20 -14 3 8 9 5 -6 -2 19 15 -5 -20 -20 -20 -20 -20 -20 -20 -20 -20 -20 -20 -20 -20 -20 -20 -20 -20
-20 -20 -20 -20 -20 -20 -20 -20 -17 -11 -20 -20 -20 -16 6 2 10 14 11 7 3 -3 6 21 4 1 -13 -20 -20 -20 -20 -20 -20 -20 -20 -20 -20 -20 -20 -20 -20 -20 -20
-20 -20 -20 -20 -20 -20 -20 -20 -20 -20 -20 -20 -11 -16 -1 11 12 14 10 7 4 12 23 19 4 7 -8 -20 -20 -20 -20 -20 -20 -20 -20 -20 -20 -20 -20 -20 -20 -20 -20
-20 -20 -20 -20 -20 -20 -20 -20 -14 -20 -20 -13 -20 -20 -11 5 20 13 7 15 19 21 15 14 7 -6 -20 -20 -20 -20 -20 -20 -20 -20 -20 -20 -20 -20 -20 -20 -20 -20 -20
-20 -20 -20 -20 -20 -20 -11 -2 -16 -20 -20 -20 -20 -20 -20 -18 3 11 31 31 28 19 16 12 5 1 -20 -20 -20 -20 -20 -20 -20 -20 -20 -20 -20 -20 -20 -20 -20 -20 -20
-20 -20 -20 -20 -20 -18 13 11 34 17 -7 -0 -3 -10 14 27 20 25 30 29 24 21 17 9 6 -12 -20 -20 -20 -20 -20 -20 -20 -20 -20 -20 -20 -20 -20 -20 -20 -20 -20
-20 -20 -20 -20 -12 19 18 32 38 35 23 19 30 34 38 26 27 29 24 25 24 20 10 4 -5 -18 -20 -20 -20 -20 -20 -12 -20 -20 -20 -20 -20 -20 -20 -20 -20 -20 -20
-20 -20 -20 -8 -0 16 13 22 36 34 36 36 32 35 30 29 26 21 19 22 22 14 3 -5 -8 -7 -20 -20 -20 -18 -20 -9 -13 -20 -20 -20 -20 -20 -20 -20 -20 -20 -20
-20 -20 -20 -18 2 9 -3 18 35 34 30 35 34 31 29 23 20 17 18 15 9 6 4 3 1 -3 -19 -20 -20 -20 0 -2 -18 -5 -16 -20 -17 -20 -20 -20 -20 -20 -20
-20 -20 -20 -10 -19 -20 -20 14 16 33 36 31 29 28 23 21 19 20 19 16 8 1 2 1 4 4 -2 -20 -20 -20 -20 -20 -1 -7 -20 -20 -20 -20 -20 -20 -20 -20 -20
-20 -20 -20 -20 -3 -20 -20 8 9 23 24 24 23 22 23 24 21 15 13 6 4 1 2 3 4 7 4 -2 -20 -20 -20 -20 -2 -17 -19 -20 -20 -20 -20 -20 -20 -20 -20
-20 -20 -20 -20 -6 -20 -20 -6 12 20 11 19 22 23 22 21 21 19 -11 -19 -20 -6 -20 -2 2 5 3 -1 -5 -20 -20 -20 -20 -20 -20 -20 -20 -20 -20 -20 -20 -20 -20
-20 -20 -20 -20 -12 -20 -20 -20 1 6 15 24 26 21 23 19 19 10 0 -14 -20 -20 -20 -9 -8 6 4 0 -12 -5 -20 -9 -20 -20 -20 -20 -20 -20 -20 -20 -20 -5 -11
-20 -20 -20 -20 -20 -20 -20 -20 -10 -14 -15 6 18 18 22 15 6 3 6 -11 -20 -20 -20 -20 3 -8 7 -20 -20 -20 -20 -20 -20 -20 -20 -20 -20 -20 -20 -20 -20 -20 -20

GFSMW_prec_radar_156.txt.gz
Reflectivity
-20 -20 -20 -20 -20 -20 -20 -20 -20 -20 -20 -20 -20 -20 -20 -20 -20 -20 -20 -20 -20 -20 -20 -20 -20 -20 -20 -20 -20 -20 -20 -20 -20 -20 -20 -20 -20 -20 -20 -20 -20 -20 -20
-20 -20 -20 -20 -20 -20 -20 -20 -20 -20 -20 -20 -20 -20 -20 -20 -20 -20 -20 -20 -20 -20 -20 -20 -20 -20 -20 -20 -20 -20 -20 -20 -20 -20 -20 -20 -20 -20 -20 -20 -20 -20 -20
-20 -20 -20 -20 -20 -20 -20 -20 -20 -20 -20 -20 -20 -20 -20 -20 -20 -20 -20 -20 -20 -20 -20 -20 -20 -20 -20 -20 -20 -20 -20 -20 -20 -20 -20 -20 -20 -20 -20 -20 -20 -20 -20
-20 -20 -20 -20 -20 -20 -20 -20 -20 -20 -20 -20 -20 -20 -20 -20 -20 -20 -20 -20 -20 -20 -20 -20 -20 -20 -20 -20 -20 -20 -20 -20 -20 -20 -20 -20 -20 -20 -20 -20 -20 -20 -20
-20 -20 -20 -20 -20 -20 -20 -20 -20 -20 -20 -20 -20 -20 -20 -20 -20 -20 -20 -20 -20 -20 -20 -20 -20 -20 -20 -20 -20 -20 -20 -20 -20 -20 -20 -20 -20 -20 -20 -20 -20 -20 -20
-20 -20 -20 -20 -20 -20 -20 -20 -20 -20 -20 -20 -20 -20 -20 -20 -20 -20 -20 -20 -20 -20 -20 -20 -20 -20 -20 -20 -20 -20 -20 -20 -20 -20 -20 -20 -20 -20 -20 -20 -20 -20 -20
-20 -20 -20 -20 -20 -20 -20 -20 -20 -20 -20 -20 -20 -20 -20 -20 -20 -20 -20 -20 -20 -20 -20 -20 -20 -20 -20 -20 -20 -20 -20 -20 -20 -20 -20 -20 -20 -20 -20 -20 -20 -20 -20
-3 -18 -10 0 -20 -20 -20 -20 -20 -20 -20 -20 -20 -20 -20 -20 -20 -20 -20 -20 -20 -20 -20 -20 -20 -20 -20 -20 -20 -20 -20 -20 -20 -20 -20 -20 -20 -20 -20 -20 -20 -20 -20
-20 -20 -20 -18 -15 -20 -20 -20 -20 -20 -20 -20 -20 -20 -20 -20 -20 -20 -20 -20 -20 -20 -20 -20 -20 -20 -20 -20 -20 -20 -20 -20 -20 -20 -20 -20 -20 -20 -20 -20 -20 -20 -20
-20 -20 -20 -20 -20 -20 -20 -20 -20 -20 -20 -20 -20 -20 -19 -5 -5 -19 -20 -20 -20 -20 -20 -20 -20 -20 -20 -20 -20 -20 -20 -17 -19 -19 -20 -20 -20 -20 -20 -20 -20 -20 -20
-20 -20 -20 -20 -20 -20 -20 -20 -20 -20 -20 -20 -20 -20 -20 -5 7 3 1 -9 2 4 3 10 3 8 -6 -9 8 7 -16 -20 -20 -17 -20 -20 -20 -20 -20 -20 -20 -20 -20
-20 -20 -20 -20 -20 -20 -20 -20 -20 -20 -20 -20 -20 -20 -20 -20 -20 -20 -20 -7 9 6 -2 9 12 11 -1 -7 15 17 -9 -20 -20 -20 -20 -20 -20 -20 -20 -20 -20 -20 -20
-20 -20 -20 -20 -20 -20 -20 -20 -20 -20 -20 -20 -20 -20 -20 -20 -20 -20 -3 -2 -3 4 10 8 5 -4 -20 6 18 20 -20 -20 -20 -20 -20 -20 -20 -20 -20 -20 -20 -20 -20
-20 -20 -20 -20 -20 -20 -20 -20 -20 -20 -15 -4 -20 -20 -20 -20 -20 -20 -20 6 25 24 15 11 7 -2 6 12 30 13 -7 -2 -20 -20 -20 -20 -20 -20 -20 -20 -20 -20 -20
-20 -20 -20 -20 -20 -20 -20 -20 -20 -20 -20 -19 9 -19 -20 -20 -20 -20 -15 9 14 11 13 15 11 10 25 29 17 -2 6 5 -20 -20 -20 -20 -20 -20 -20 -20 -20 -20 -20
-20 -20 -20 -20 -20 -20 -20 -20 10 5 -13 -8 -3 -10 -20 -20 -12 15 16 8 6 17 21 16 16 22 24 16 5 3 2 -20 -20 -20 -20 -20 -20 -20 -20 -20 -20 -20 -20
-20 -20 -20 -20 -20 -20 -20 -20 -20 -1 -2 3 6 12 9 1 11 15 2 11 24 24 30 23 23 24 20 10 10 6 1 -20 -20 -20 -20 -20 -20 -20 -20 -20 -20 -20 -20
-20 -20 -20 -20 -20 -20 -20 -20 -20 -1 10 19 18 30 30 33 33 24 23 34 31 24 24 22 23 20 14 14 12 3 -13 -20 -20 -20 -20 -20 -20 -20 -20 -20 -20 -20 -20
-20 -20 -20 -20 -20 -20 -20 -20 6 23 24 28 26 24 30 26 26 26 29 27 23 24 24 21 22 14 10 9 4 -10 -20 -20 -20 -20 -20 -20 -20 -20 -20 -20 -20 -20 -20
-20 -20 -20 -20 -20 -20 -20 -20 11 15 16 30 32 33 33 20 26 27 27 23 23 24 18 20 15 11 12 7 3 -10 -19 -20 -20 -20 -20 -20 -20 -20 -20 -20 -20 -20 -20
-20 -20 -20 -20 -20 -20 -20 -20 -5 9 14 20 27 22 23 25 26 26 24 24 23 20 20 18 10 3 2 1 -5 -7 -20 -20 -20 -20 -20 -20 -20 -20 -20 -20 -20 -20 -20
-20 -20 -20 -20 -20 -20 -20 -20 2 5 11 10 13 14 18 20 22 21 20 22 21 18 16 5 4 2 -9 -20 -20 -20 -11 -4 -20 -20 -20 -20 -20 -20 -20 -20 -20 -20 -20
-20 -20 -20 -20 -20 -20 -20 -20 6 7 -0 -6 4 13 14 19 18 21 22 21 19 21 10 0 -4 -5 -20 -20 -20 -20 -20 -11 -20 -20 -20 -20 -20 -20 -20 -20 -20 -20 -20
-20 -20 -20 -20 -20 -20 -20 -20 5 2 -15 -13 5 13 16 19 23 22 20 20 19 10 -16 -5 -6 -7 -15 -20 -20 -20 -20 -20 -20 -20 -20 -20 -20 -20 -20 -20 -20 -20 -20
-20 -20 -20 -20 -20 -20 -20 -20 -6 -17 -16 -15 -4 1 14 17 19 18 17 15 -5 -20 -20 -20 -20 -14 -20 -20 -20 -20 -20 -20 -20 -20 -20 -20 -20 -20 -20 -20 -20 -20 -20
-20 -20 -20 -20 -20 -20 -20 -20 -11 -16 -16 -18 -7 0 1 15 19 16 17 9 -7 -13 -6 -12 -20 -20 -20 -19 -5 -4 -13 -20 -20 -20 -20 -20 -20 -20 -20 -20 -20 -20 -20

GFSMW_prec_radar_159.txt.gz
Reflectivity
-20 -20 -20 -20 -20 -20 -20 -20 -20 -20 -20 -20 -20 -20 -20 -20 -20 -20 -20 -20 -20 -20 -20 -20 -20 -20 -20 -20 -20 -20 -20 -20 -20 -20 -20 -20 -20 -20 -20 -20 -20 -20 -20
-20 -20 -20 -20 -20 -20 -20 -20 -20 -20 -20 -20 -20 -20 -20 -20 -20 -20 -20 -20 -20 -20 -20 -20 -20 -20 -20 -20 -20 -20 -20 -20 -20 -20 -20 -20 -20 -20 -20 -20 -20 -20 -20
-5 8 -3 -20 -20 -20 -20 -20 -20 -20 -20 -20 -20 -20 -20 -20 -20 -20 -20 -20 -20 -20 -20 -20 -20 -20 -20 -20 -20 -20 -20 -20 -20 -20 -20 -20 -20 -20 -20 -20 -20 -20 -20
-20 -9 -20 -20 -20 -20 -20 -20 -20 -20 -20 -20 -20 -20 -20 -20 -20 -20 -20 -20 -20 -20 -20 -20 -20 -20 -20 -20 -20 -20 -20 -20 -20 -20 -20 -20 -20 -20 -20 -20 -20 -20 -20
-20 -20 -20 -20 -20 -20 -20 -20 -19 -20 -20 -20 -20 -20 -20 -20 -20 -20 -20 -20 -20 -20 -20 -20 -20 -20 -20 -20 -20 -20 -20 -20 -20 -20 -20 -20 -20 -20 -20 -20 -20 -20 -20
10 5 -20 -20 -20 -20 -20 -20 -18 -17 -20 -20 -20 -20 -20 -20 -20 -20 -20 -20 -20 -20 -20 -20 -20 -20 -20 -20 -20 -20 -20 -20 -20 -20 -20 -20 -20 -20 -20 -20 -20 -20 -20
22 16 -1 -13 -20 -20 -20 -20 -20 -11 4 -14 -20 -20 -20 -20 -20 -20 -20 -20 -20 -20 -20 -20 -20 -20 -20 -20 -20 -20 -20 -20 -20 -20 -20 -20 -20 -20 -20 -20 -20 -20 -20
-10 3 6 3 -18 -12 -19 -20 -20 -15 -20 -20 -20 -20 -20 -20 -20 -20 -20 -20 -20 -20 -20 -20 -20 -20 -20 -20 -20 -20 -20 -20 -20 -20 -19 -20 -20 -20 -20 -20 -20 -20 -20
-20 -20 -8 3 8 -15 3 1 -4 -20 -20 -20 -20 -20 -20 -20 -20 -20 -20 -20 -20 -20 -20 -20 -20 -20 -20 -20 -20 -20 -20 -20 -20 -20 -18 -14 -20 -20 -20 -20 -20 -20 -20
-20 -20 -20 -20 -20 -20 -20 -20 -20 -20 -20 -20 -20 -20 -20 -20 -20 -20 -20 -20 -14 4 -3 -17 -20 -20 -20 -20 -20 -18 -20 -16 -10 2 0 -5 -15 -20 -20 -20 -20 -20 -20
-20 -20 -20 -19 -16 -4 -3 -20 -20 -20 -20 -20 -20 -20 -20 -20 -20 -1 -1 -20 -20 -20 -20 5 9 8 6 4 2 -1 -8 -9 -2 3 5 -19 -20 -20 -20 -20 -20 -20 -20
-15 -20 -20 -20 -20 -2 5 6 7 -20 -20 -20 -20 -20 -20 -20 -20 -20 7 -12 -20 -20 -20 -15 -2 9 14 14 13 8 7 8 9 17 14 -12 -20 -20 -20 -20 -20 -20 -20
-20 -20 -20 -20 -20 -20 -20 -20 -20 -20 -20 -20 -20 -20 -20 -20 -20 -20 -14 -20 -20 -20 -20 -20 -8 15 21 20 11 11 13 6 8 28 13 -18 -20 -20 -20 -20 -20 -20 -20
-20 -20 -20 -20 -20 -20 -20 -20 -20 -20 -20 -20 -20 -6 -17 -20 -20 -20 -20 -20 -14 -20 -18 -2 -16 -7 16 22 12 15 15 24 19 22 5 -1 -10 -20 -20 -20 -20 -20 -20
-20 -20 -20 -20 -20 -20 -20 -20 -20 -20 -20 -20 -17 -3 5 14 16 1 -20 -20 3 -8 -16 -18 -12 -4 7 -1 21 17 20 11 17 13 6 1 -2 -17 -20 -20 -20 -20 -20
-20 -20 -20 -20 -20 -20 -20 -20 -20 -20 -20 -20 -20 -6 -1 1 2 9 14 10 31 22 9 5 9 9 7 28 27 18 13 15 14 9 1 2 -11 -20 -20 -20 -20 -20 -20
-20 -20 -20 -20 -20 -20 -20 -20 -20 -20 -20 -20 -20 -20 9 18 17 20 26 33 29 32 28 18 25 18 21 24 19 20 13 19 12 -2 4 1 -20 -20 -20 -20 -20 -20 -20
-20 -20 -20 -20 -20 -20 -20 -20 -20 -20 -20 -20 -19 8 11 17 23 25 26 24 26 25 25 21 16 21 24 14 4 12 14 17 12 3 -2 -6 -20 -20 -20 -20 -20 -20 -20
-20 -20 -20 -20 -20 -20 -20 -20 -20 -20 -20 -20 -12 0 2 22 32 30 28 24 21 20 22 25 25 21 8 8 14 16 11 4 7 2 -3 -12 -20 -20 -20 -20 -20 -20 -20
-6 8 -4 -20 -20 -20 -20 -20 -20 -20 -20 -20 -10 4 18 13 29 25 19 19 19 19 17 22 24 16 8 15 14 12 11 -1 5 6 -7 -20 -20 -20 -20 -20 -20 -20 -20
-18 -16 -20 -20 -20 -20 -20 -20 -20 -20 -20 -20 -4 -4 -10 0 9 13 13 16 18 16 20 23 21 15 15 17 15 12 5 -9 0 -6 -14 -20 -20 -20 -20 -20 -20 -20 -20
11 -10 -20 -20 -20 -20 -20 -20 -20 -20 -20 -20 -20 -20 -14 1 4 10 15 14 14 13 20 20 20 21 16 10 10 6 4 1 -18 -20 -20 -20 -20 -20 -20 -20 -20 -20 -20
5 -8 -20 -20 -20 -20 -20 -20 -20 -20 -20 -20 -17 -17 -17 -7 3 2 9 15 15 16 18 22 19 18 10 -8 -19 4 -1 -20 -20 -20 -20 -20 -20 -20 -20 -20 -20 -20 -20
-4 -20 -20 -20 -20 -20 -20 -20 -20 -19 -20 -20 -16 -15 -18 -14 2 6 6 11 12 16 17 18 19 6 -20 -20 -20 -18 -20 -20 -20 -20 -20 -20 -20 -20 -20 -20 -20 -20 -20
-20 -20 -20 -20 -20 -20 -20 -20 -8 -20 -16 -16 -17 -7 -9 -15 -12 9 11 8 11 13 12 12 2 -20 -20 -20 -20 -20 -20 -20 -20 -20 -20 -20 -20 -20 -20 -20 -20 -20 -20
-20 -20 -20 -20 -20 -20 -20 -17 -19 -18 -15 -15 -14 -20 -17 -15 -18 -17 13 18 15 11 12 -3 -20 -20 -20 -20 -20 -20 -20 -20 -20 -20 -20 -20 -20 -20 -20 -20 -20 -20 -20

GFSMW_prec_radar_165.txt.gz
Reflectivity
-20 -20 -20 -20 -20 -20 -20 -20 -17 -19 -17 -17 -17 -12 -12 -8 -8 -20 -20 -20 -20 -20 -20 -7 -20 -20 -20 -20 -20 -20 -20 -20 -20 -20 -20 -20 -20 -20 -20 -20 -20 -20 -20
-20 -20 -20 -20 -20 -20 28 -2 -2 27 5 -1 15 8 -5 -20 -20 -20 -20 -20 -20 -20 -20 -20 -20 -20 -20 -20 -20 -20 -20 -20 -20 -20 -20 -20 -2 5 8 2 4 -15 -20
-20 -20 -20 -20 -20 -20 -20 -17 24 27 27 24 19 28 20 15 1 -20 -20 -20 -20 -20 -20 -20 -20 -20 -20 -20 -20 -20 -20 -20 -20 -20 -20 -20 -20 -20 -16 -2 2 1 -20
-20 -20 -20 -20 -20 -20 -18 26 26 26 26 29 36 33 27 19 13 -14 -20 -20 -20 -20 -20 -20 -20 -20 -20 -20 -20 -20 -20 -20 -20 -20 -20 -20 -20 -20 -20 -20 -20 -20 -20
-20 -20 -20 -20 -20 26 22 26 22 25 24 30 31 25 12 7 -3 -11 -20 -20 -20 -20 -20 -20 -20 -20 -20 -20 -20 -20 -11 -7 -17 -20 -20 -20 -20 -20 -20 -20 -20 -20 -20
-20 -20 -20 -20 -20 -6 10 26 26 24 7 -6 -20 -20 -20 -19 -20 -20 -20 -20 -20 -20 -20 -20 -20 -20 -20 -20 -20 -20 -20 -20 -20 -20 -20 -20 -20 -20 -20 -20 -20 -20 -20
-20 -20 -20 -20 -20 -20 -20 -2 -3 1 -18 3 -1 -20 -3 2 -12 8 4 -7 -20 -20 -20 -20 -20 -20 -20 -20 -20 -20 -20 -20 -20 -20 -20 -20 -20 -20 -20 -20 -20 -19 -20
-20 -20 -20 -20 -20 -20 -20 -20 -20 -19 -20 -20 -20 -20 -19 -2 -1 -11 -20 -20 7 -13 -20 -20 -20 -20 -20 -20 -20 -20 -20 -20 -20 -14 -7 -10 -20 -20 -20 -20 -19 -15 -6
-20 -20 -20 -20 -20 -20 -20 -20 -20 2 6 20 23 16 8 -13 -17 -6 -2 -9 -12 -18 -19 -20 -20 -20 -20 -20 -20 -20 -20 -20 -20 -18 -14 -9 -15 -20 -20 -20 -20 -20 -20
-20 -20 -20 -20 -20 -20 -20 -20 -20 -20 -20 -20 -20 -20 -20 -20 -20 -20 -20 -20 -20 -20 -20 -20 -20 -20 -20 -20 -20 -20 -20 -20 -20 -20 -15 -17 -5 -11 -13 -18 -20 -20 -20
-20 -20 -20 -20 -20 -20 -20 -20 -20 -20 -20 -20 -20 -20 -20 -20 -20 -20 -20 -20 -20 -19 -6 -8 -7 -8 -20 -7 -20 -20 -20 -20 -20 -20 -18 -18 -5 3 9 6 7 0 -8
-20 -20 -20 -20 -20 -20 -20 -20 -20 -20 -20 -20 -20 -20 -20 -20 -20 -20 -20 -20 -20 -20 -20 -15 -7 -5 1 -1 -10 -20 -20 -20 -20 3 4 -10 -0 11 17 18 17 17 17
-18 -17 -20 -20 -20 -20 -20 -20 -20 -20 -20 -20 -20 -20 -20 -20 -20 -20 -20 -20 -20 -20 -20 -20 -20 -6 0 3 -14 -4 -13 -18 -20 -20 -20 -20 -10 17 18 17 10 9 10
-12 -14 -20 -20 -20 -20 -20 -20 -20 -20 -20 -20 -20 -20 -20 -20 -20 -20 -20 -20 -20 -20 -16 -6 7 4 -14 -20 0 10 8 -7 -10 -20 -20 10 12 13 3 1 12 10 6
3 12 -20 -20 -20 -20 -20 -20 -20 -20 -20 -20 -20 -20 -20 -20 -20 -20 -20 -20 -20 -13 5 2 18 24 11 -20 4 15 13 6 3 -20 -9 7 12 9 -6 3 -10 -11 -10
-20 -20 -20 -20 -20 -20 -20 -20 -20 -20 -20 -20 -20 -20 -20 -20 -20 -20 -20 -20 -20 -20 -18 -3 15 29 16 17 20 0 -4 6 3 10 17 14 18 -11 1 -11 -20 -20 -9
-20 -20 -20 -20 -20 -20 -20 -20 -20 -20 -20 -20 -20 -20 -20 -20 -20 -20 -20 -18 -2 10 -14 -5 22 25 24 -2 -19 -16 -20 -14 13 19 10 5 10 -7 -16 -20 -20 -20 -13
-20 -20 -20 -20 -20 -20 -20 -20 -20 -20 -20 -20 -20 -20 -20 -20 -20 -20 -20 -4 -2 8 -20 10 18 24 21 12 6 1 14 16 20 19 12 17 16 6 -20 -20 -20 -20 -4
-20 -20 -20 -20 -19 -13 -20 -20 -14 -14 -17 -20 -20 -20 -20 -20 -20 -20 -19 -11 6 -3 -0 6 12 16 6 21 -15 10 19 20 18 19 12 13 4 -20 -13 -12 -10 -9 -6
-20 -20 -20 -20 -20 -20 -20 -18 -18 -4 4 -20 -20 -20 -20 -20 -20 -20 -18 3 6 -15 -18 -11 -3 -6 0 21 11 14 16 16 19 7 12 11 -18 -11 -5 -7 -17 -19 -17
-20 -20 -20 -20 -20 -20 -20 -20 -17 -10 -20 -16 -20 -20 -16 -20 -20 -20 -15 -16 -16 -11 3 -17 -20 -20 -2 19 15 12 17 18 15 7 6 -15 -17 -6 -1 -3 -8 -7 -18
-20 -20 -20 -20 -20 -20 -20 -20 -20 -20 2 -20 -20 -20 -20 -20 -20 -20 -18 -20 -20 -19 -9 -11 -16 -20 3 15 14 8 14 7 2 4 -2 1 5 1 -1 -6 -15 -7 -14
-20 -20 -20 -20 -20 -20 -20 -20 -20 -20 -20 -20 -20 -20 -20 -20 -20 -20 -20 -20 -20 -20 -0 1 -4 -2 1 12 3 14 13 13 3 2 2 8 9 1 1 -18 -19 -17 -17
-20 -20 -20 -20 -20 -20 -20 -20 -20 -20 -12 -20 -20 -20 -20 -20 -20 -20 -20 -20 -20 -20 1 -5 8 8 7 7 2 -6 -1 9 8 5 7 5 -3 -6 -8 -13 -20 -20 -20
-20 -20 -20 -20 -20 -20 -20 -20 -20 -20 -20 -20 -20 -20 -17 -18 -18 -19 -18 -14 -18 -16 -3 -9 15 10 -7 -2 -18 -19 5 9 6 3 -1 -7 -14 -15 -20 -20 -20 -20 -20
-20 -20 -20 -20 -20 -20 -20 -20 -20 -20 -20 -17 -18 -17 -19 -20 -20 -20 -2 6 -2 -3 -10 2 13 17 10 -20 3 9 -16 -17 -14 -16 -17 -20 -20 -20 -20 -20 -20 -20 -20

GFSMW_prec_radar_168.txt.gz
Reflectivity
-20 -20 -20 -20 -20 -20 -20 -20 -20 -20 -4 31 31 26 31 31 30 25 -19 -20 -20 -20 -12 -15 -20 -20 -20 -20 -20 -20 -20 -20 -20 -20 -20 -20 -19 -20 -20 -20 -20 -20 -20
-20 -20 -20 -20 -20 -20 -20 -20 -16 8 22 -6 29 27 26 21 15 3 8 -9 2 11 -20 -19 -14 -17 -19 -20 -20 -20 -20 -20 -20 -20 -20 -20 -20 -19 -10 7 13 8 -10
-20 -20 -20 -20 -20 -20 -20 6 -20 -18 21 15 18 26 34 33 18 16 13 13 16 -4 -4 -5 -8 -6 -5 -20 -20 -20 -20 -20 -20 -20 -20 -20 -20 -20 -20 7 12 7 13
-20 -20 -20 -20 -20 -20 -10 28 32 30 27 28 20 19 2 24 37 36 31 19 -4 -14 12 -7 -20 -20 -12 7 -8 -20 -20 -20 -20 -20 -20 -20 -20 -20 -20 -20 -20 -17 1
-20 -20 -20 -20 -20 -20 -18 -1 18 29 28 23 20 18 4 7 29 30 14 -1 -11 10 -20 -20 -20 -20 -20 -20 -20 -20 -20 -5 -19 -20 -14 -9 -18 -20 -20 -20 -20 -20 -20
-20 -20 -20 -20 -20 -20 -20 -20 -1 -20 10 3 20 -5 -20 -20 -20 -0 7 -20 7 -5 -14 -8 2 -20 -20 -20 -20 -20 -20 -20 -20 -18 -20 -20 -20 -17 -19 -14 -14 -11 -13
-20 -20 -20 -20 -20 -20 -20 -20 -20 -20 -17 12 20 18 21 18 13 -2 4 -6 -20 -20 -20 -20 -20 -20 -20 -20 -20 -20 -20 -20 -20 -20 -20 -20 -20 -20 -20 -20 -20 -20 -20
-20 -20 -20 -20 -20 -20 -20 -20 -20 -20 -20 -20 -20 -20 -20 -20 -19 -19 -19 0 11 8 -1 -13 -5 -18 -20 -9 -1 -12 -20 -20 -20 -20 -20 -20 -20 -20 -20 -20 -20 -20 -20
-20 -20 -20 -20 -20 -20 -20 -20 -20 -20 -20 -20 -20 -20 -20 -20 -20 -20 -20 -20 -20 -20 -12 -20 -20 -20 -20 -20 -20 -20 -20 -20 -20 -20 -20 -20 -20 -20 -20 -20 -20 -20 -20
-20 -20 -20 -20 -20 -20 -20 -20 -20 -20 -20 -20 -20 -20 -20 -20 -20 -20 -20 -20 -20 -20 -20 -20 -20 -20 -18 -8 -20 -20 -20 -20 -20 -20 -20 -20 -20 -20 -20 -20 -20 -20 -20
-20 -20 -20 -20 -20 -20 -20 -20 -20 -20 -20 -20 -20 -20 -20 -20 -20 -20 -20 -20 -20 -20 -20 -20 -20 -20 -20 -20 -20 -10 -7 -16 -20 -20 -20 -20 -20 -20 -20 -20 -20 -20 -20
-20 -20 -20 -20 -20 -20 -20 -20 -20 -20 -20 -20 -20 -20 -20 -20 -20 -20 -20 -20 -20 -20 -20 -20 -20 -20 -20 -20 -20 -20 -19 -19 -19 -18 -19 -20 -20 -20 -20 -20 -20 -20 -6
-20 -20 -20 -20 -20 -20 -20 -20 -20 -20 -20 -20 -20 -20 -20 -20 -20 -20 -20 -20 -20 -20 -20 -20 1 3 9 -19 6 9 -2 -19 -20 -19 -10 -20 -11 -7 -4 -1 -19 11 -20
-20 -20 -20 -20 -20 -20 -20 -20 -20 -20 -20 -20 -20 -20 -20 -20 -20 -20 -20 -20 -20 -20 -20 -20 -20 -13 -20 -20 14 6 -1 13 4 -20 -20 -9 -2 -4 -8 13 7 5 -19
-20 5 -20 -20 -20 -20 -20 -16 -19 -20 -20 -20 -20 -20 -20 -20 -20 -20 -20 -20 -20 -20 -20 -20 -20 -6 4 -4 6 1 -15 4 7 4 -19 -20 -15 12 20 17 18 7 -20
-20 -20 -20 -20 -20 -20 -20 -20 -20 -20 -20 -20 -20 -20 -20 -20 -20 -20 -20 -20 -20 -20 -20 -20 2 12 10 23 24 2 -13 -20 -20 -20 -20 -20 -9 21 18 11 11 1 -12
-20 -20 -20 -20 -20 -20 -20 -20 -20 -20 -20 -20 -20 -20 -20 -20 -20 -20 -20 -20 -20 -20 -20 -19 7 12 -2 30 25 20 -20 -20 -20 -19 -18 -13 14 16 16 18 16 11 6
-20 -20 -20 -20 -20 -20 -20 -20 -20 -20 -20 -20 -20 -20 -20 -20 -20 -20 -20 -20 -20 -20 -20 -11 -4 9 19 27 15 -15 -19 -19 1 -6 5 16 12 15 17 13 17 11 -20
-20 -20 -20 -20 -20 -20 -20 -20 -1 7 -1 11 -20 -20 -20 -20 -20 -20 -20 -20 -20 -20 -20 -17 -13 -7 17 -2 -19 -20 -20 -20 -19 -7 11 16 14 16 16 13 9 -1 -3
-20 -20 -20 -20 -20 -20 -20 -18 -19 -20 -19 -15 -20 -20 -20 -20 -20 -20 -20 -20 -20 -20 -20 -19 -18 -13 -19 -5 -19 -17 -20 -19 -14 9 -2 -7 6 9 8 8 4 -4 -12
-20 -20 -20 -20 -20 -20 -20 -20 6 -5 -17 5 -20 -20 -20 -15 -20 -20 -20 -20 -20 -20 -20 -20 -20 -20 -20 -6 -5 -18 -3 -9 -13 -5 4 9 6 12 13 13 12 11 -10
-20 -20 -20 -20 -20 -20 -20 -20 -5 -9 -17 -3 -20 -20 -20 -20 -20 -20 -20 -20 -20 -20 -20 -20 -20 -20 -20 -13 -8 -10 -1 -0 -7 7 9 -0 4 10 9 7 8 7 3
-20 -20 -20 -20 -20 -20 -20 -20 -20 -8 9 3 -20 -20 -20 -20 -20 -20 -20 -20 -20 -20 -20 -20 -20 -20 -20 -20 -13 -9 -6 6 9 4 -19 -19 6 9 6 6 3 -5 -7
-20 -20 -20 -20 -20 -20 -20 -20 -20 -20 -5 5 -20 -20 -20 -20 -20 -20 -20 -20 -20 -20 -20 -20 -20 -20 -18 -12 -15 5 5 10 13 10 5 -4 0 0 -6 -8 -15 -14 -12
-20 -20 -20 -20 -20 -20 -20 -20 -20 -20 -11 -8 -20 -20 -20 -20 -20 -20 -20 -20 -20 -20 -20 -20 -20 7 8 8 -3 6 4 7 7 -3 -12 -11 -14 -14 -10 -20 -20 -20 -20
-20 -20 -20 -20 -20 -20 -20 -20 -20 -20 -20 -20 -20 -16 -16 -20 -20 -20 -20 -20 -20 -20 -20 -20 -15 12 16 12 6 7 2 -19 -20 -9 1 6 0 -16 -20 -20 -20 -20 -20

GFSMW_prec_radar_174.txt.gz
Reflectivity
-20 -20 -20 -20 -20 -20 -12 9 -8 3 -5 -13 6 -20 -20 27 30 -13 -20 -4 9 33 33 29 13 8 -7 -16 8 -20 -20 -20 -20 -20 -20 -11 13 -20 -20 -20 -20 -20 -20
-20 -20 -20 -20 -20 -16 -3 3 17 8 20 -8 -20 -14 -20 31 12 22 9 30 19 3 15 19 6 13 16 -9 -8 -18 -20 -14 -15 -1 0 -18 1 5 -20 -18 -20 -20 -20
-20 -20 -20 -20 -5 -14 3 4 11 3 7 -20 -20 -7 -17 -20 1 -5 -20 -15 -20 -20 -15 19 36 32 20 12 18 13 -10 -10 -5 -20 -10 -9 -12 -17 -8 -15 -20 -20 -20
-20 -20 -20 -20 -4 -3 -16 -20 -4 14 8 -1 -20 -20 -7 -12 20 -14 -20 -20 -20 -7 -11 -16 5 13 14 3 -20 -17 -20 -20 -20 4 5 -20 -19 -3 -18 -20 -20 -20 -20
-20 -20 -20 -20 -18 -7 -6 -20 -18 7 3 -20 -20 -20 -20 -14 -20 -20 -20 -20 -20 -20 -20 -20 -20 -20 -20 -20 -20 -20 -20 -20 -20 -20 -4 4 -20 3 -20 -20 -20 -20 -20
-20 -20 -20 -20 -20 -7 -16 -20 -20 -20 -14 -9 -20 -20 -20 -20 -20 -20 -20 -20 -20 -20 -20 -20 -20 -20 -20 -20 -20 -20 -20 -20 -20 -20 -20 -10 3 -14 -20 -20 -20 -20 -20
-20 -20 -20 -20 -20 -17 -4 -20 -20 -20 -20 -20 -20 -20 -20 -20 -20 -20 -20 -20 -20 -20 -20 -20 -20 -20 -20 -20 -20 -20 -20 -20 -20 -20 -20 -20 -16 3 -1 -14 -20 -20 -20
-20 -20 -20 -20 -20 -20 -20 -20 -20 -20 -20 -20 -20 -20 -20 -20 -20 -20 -20 -20 -20 -20 -20 -20 -20 -20 -20 -20 -20 -20 -20 -20 -20 -20 -20 -20 -20 -20 -20 1 -20 -20 -20
-20 -20 -20 -20 -20 -20 -20 -20 -20 -20 -20 -20 -20 -20 -20 -20 -20 -20 -20 -20 -20 -20 -20 -20 -20 -20 -20 -20 -20 -20 -20 -20 -20 -20 -20 -20 -20 -20 -20 -20 -0 -2 -17
-20 -20 -20 -20 -20 -20 -20 -20 -20 -20 -20 -20 -20 -20 -20 -20 -20 -20 -20 -20 -20 -20 -20 -20 -20 -20 -20 -20 -20 -20 -20 -20 -20 -20 -20 -20 -20 -20 -20 -20 -20 -20 -8
-20 -20 -20 -20 -20 -20 -20 -20 -20 -20 -20 -20 -20 -20 -20 -20 -20 -20 -20 -20 -20 -20 -20 -20 -20 -20 -20 -20 -20 -20 -20 -20 -20 -20 -20 -20 -20 -20 -20 -20 -20 -20 -20
-20 -20 -20 -20 -20 -20 -20 -20 -20 -20 -20 -20 -20 -20 -20 -20 -20 -20 -20 -20 -20 -20 -20 -20 -20 -20 -20 -20 -20 -20 -20 -20 -20 -20 -20 -20 -20 -20 -20 -20 -20 -20 -20
-20 -20 -20 -20 -20 -20 -20 -20 -20 -20 -20 -20 -20 -20 -20 -20 -20 -20 -20 -20 -20 -20 -20 -20 -20 -20 -20 -20 -20 -20 -20 -20 -20 -20 -20 -20 -20 -20 -20 -20 -20 -20 -20
-20 -20 -20 -20 -20 -20 -20 -20 -20 -20 -20 -20 -20 -20 -20 -20 -20 -20 -20 -20 -20 -20 -20 -20 -20 -20 -20 -20 -20 -20 -20 -20 -20 -20 -20 -20 -20 -20 -20 -20 -20 -20 -20
-20 -20 -20 -20 -20 -20 -20 -20 -20 -20 -20 -20 -20 -20 -20 -20 -20 -20 -20 -20 -20 -20 -20 -20 -20 -20 -20 -20 -20 -20 -20 -20 -20 -20 -20 -20 -20 -20 -20 -20 -20 -20 -20
-20 -20 -20 -20 -20 -20 -20 -20 -20 -20 -20 -20 -20 -20 -20 -20 -20 -20 -20 -20 -20 -20 -20 -20 -20 -20 -20 -20 -20 -20 -20 -20 -20 -20 -20 -20 -15 -20 -20 -20 -20 -20 -20
-20 -20 -20 -20 -20 -20 -20 -20 -20 -20 -20 -20 -20 -20 -20 -20 -20 -20 -20 -20 -20 -20 -20 -20 -20 -20 -20 -20 -20 -20 -20 -20 -13 -15 -20 -20 -20 -20 -20 -13 -20 -20 -20
-20 -20 -20 -20 -20 -20 -20 -20 -20 -20 -20 -20 -20 -20 -20 -20 -20 -20 -20 -20 -15 6 -2 -20 -20 -20 -20 -20 -20 -20 -15 -3 -1 -14 -20 -15 -20 -20 -20 -20 -20 -11 -20
-20 -20 -20 -20 -20 -20 -20 -20 -20 -20 -20 -6 -3 3 -1 2 1 -10 -1 10 -13 -1 15 11 11 4 -20 -20 -12 -1 2 0 -1 -19 -18 -17 -20 -20 -20 -20 -6 3 5
-20 -20 -20 -20 -20 -20 -20 -20 -15 12 8 17 11 -11 -0 -4 -18 -6 9 3 11 -11 -1 13 11 5 -19 -17 -13 -13 1 -1 0 -4 -10 -20 -20 -20 -20 -10 -1 -1 -1
-16 -20 -20 -20 -20 -20 -20 -20 6 -5 14 13 8 10 10 7 4 -10 11 -14 -1 -6 1 -5 9 5 -0 -0 2 -14 5 -1 -15 -1 0 -6 -20 -20 -20 -17 1 -9 -9
1 1 -15 -20 -20 -20 -20 -20 4 4 13 13 12 8 -6 -3 -7 -18 -1 -2 -4 -2 -0 1 4 1 -4 7 -15 4 -18 -9 3 -2 0 -2 -20 -20 -20 -14 -5 -19 -20
-20 -16 -11 -16 -17 -20 -20 -20 -20 -20 -20 -18 -18 -16 -20 -19 -3 -3 -9 0 0 -1 1 -18 -9 2 3 7 -19 -20 -10 -20 9 9 10 -8 6 2 -8 0 -7 -14 -1
-20 -20 -20 -20 -20 -20 -20 -20 -20 -20 -20 -20 -20 -20 -20 -4 -1 -3 -5 -2 1 -15 -17 -20 -20 -11 -15 6 2 -7 -1 -17 -4 -16 8 1 -0 4 -7 -3 -2 -0 2
-20 -20 -20 -20 -20 -20 -20 -20 -20 -20 -20 -20 -13 -20 -12 -4 -7 -15 -0 -20 -11 -11 -16 -18 -14 -19 -8 8 -6 -12 2 5 3 3 1 6 3 2 0 1 0 1 -4
-20 -20 -20 -20 -20 -20 -20 -20 -20 -20 -20 -20 -4 -11 -6 -1 -3 -7 -7 -20 -17 -20 -20 -16 1 -7 -11 -20 -20 -20 -20 -20 -20 6 6 3 5 5 0 -7 -4 -4 -8

GFSMW_prec_radar_177.txt.gz
Reflectivity
-20 -20 -20 -20 -20 -20 -20 -20 -6 2 2 9 3 29 -7 0 -11 -20 -20 -20 12 -10 -20 -20 -20 -17 -20 -2 -20 12 25 -4 -5 2 -20 -16 2 -18 -20 -6 16 -11 -20
-20 -20 -20 -20 -14 -6 -18 -20 -20 -15 17 11 8 -20 -20 1 -20 -17 -17 -1 -20 -18 -5 -17 10 10 19 23 14 0 12 9 2 30 -19 -15 -4 1 6 3 -18 -15 -20
-20 -20 -20 -20 -20 -20 -20 -20 -20 3 13 14 -4 -20 -20 -20 -10 -20 -2 -20 -20 -20 -20 -20 -20 -10 10 -11 12 3 2 25 10 13 9 -7 -10 -2 -9 3 11 -20 -20
-20 -20 -20 -20 -5 -2 -5 -20 -20 7 15 6 -20 -20 -20 -20 -16 -4 -19 -20 -20 -20 -20 -20 -20 -20 -20 -20 -20 -20 -18 -16 -18 -1 -20 19 12 -6 -20 -20 -18 5 2
-20 -20 -20 -20 -20 -9 -8 -20 -20 -20 -20 -20 -20 -20 -20 -20 -20 -20 -20 -20 -20 -20 -20 -20 -20 -20 -20 -20 -20 -20 -20 -20 -20 -20 7 -19 13 18 0 -20 -18 -20 -20
-20 -20 -20 -20 -20 -20 -6 -1 -2 -18 -7 -10 -2 -11 -15 -20 -20 -20 -20 -20 -20 -20 -20 -20 -20 -20 -20 -20 -20 -20 -20 -20 -20 -20 -20 -20 -8 -20 11 0 -5 14 -2
-20 -20 -20 -20 -20 -15 -9 -1 -4 -12 -20 -20 -20 -20 -20 -20 -20 -20 -20 -20 -20 -20 -20 -20 -20 -20 -20 -20 -20 -20 -20 -20 -20 -20 -20 -20 -20 -20 9 11 -20 -20 -15
-20 -20 -20 -20 -20 -20 -20 -20 -20 -20 -20 -20 -20 -20 -20 -20 -20 -20 -20 -20 -20 -20 -20 -20 -20 -20 -20 -20 -20 -20 -20 -20 -20 -20 -20 -20 -20 -20 -20 7 -13 -20 -20
-20 -20 -20 -20 -20 -20 -20 -20 -20 -20 -20 -20 -20 -20 -20 -20 -20 -20 -20 -20 -20 -20 -20 -20 -20 -20 -20 -20 -20 -20 -20 -20 -20 -20 -20 -20 -20 -20 -20 -20 4 -20 2
-20 -20 -20 -20 -20 -20 -20 -20 -20 -20 -20 -20 -20 -20 -20 -20 -20 -20 -20 -20 -20 -20 -20 -20 -20 -20 -20 -20 -20 -20 -20 -20 -20 -20 -20 -20 -20 -20 -20 -20 -20 -1 7
-20 -20 -20 -20 -20 -20 -20 -20 -20 -20 -20 -20 -20 -20 -20 -20 -20 -20 -20 -20 -20 -20 -20 -20 -20 -20 -20 -20 -20 -20 -20 -20 -20 -20 -20 -20 -20 -20 -20 -20 -20 -20 -20
-20 -20 -20 -20 -20 -20 -20 -20 -20 -20 -20 -20 -20 -20 -20 -20 -20 -20 -20 -20 -20 -20 -20 -20 -20 -20 -20 -20 -20 -20 -20 -20 -20 -20 -20 -20 -20 -20 -20 -20 -20 -20 -20
-20 -20 -20 -20 -20 -20 -20 -20 -20 -20 -20 -20 -20 -20 -20 -20 -20 -20 -20 -20 -20 -20 -20 -20 -20 -20 -20 -20 -20 -20 -20 -20 -20 -20 -20 -20 -20 -20 -20 -20 -20 -20 -20
-20 -20 -20 -20 -20 -20 -20 -20 -20 -20 -20 -20 -20 -20 -20 -20 -20 -20 -20 -20 -20 -20 -20 -20 -20 -20 -20 -20 -20 -20 -20 -20 -20 -20 -20 -20 -20 -20 -20 -20 -20 -20 -20
-20 -20 -20 -20 -20 -20 -20 -20 -20 -20 -20 -20 -20 -20 -20 -20 -20 -20 -20 -20 -20 -20 -20 -20 -20 -20 -20 -20 -20 -20 -20 -20 -20 -20 -20 -20 -17 -19 -20 -20 -20 -20 -20
-20 -20 -20 -20 -20 -20 -20 -20 -20 -20 -20 -20 -20 -20 -20 -20 -20 -20 -20 -20 -20 -20 2 18 -20 -20 -20 -20 -20 -20 -20 -20 -20 -20 -20 -20 -7 -4 -20 -20 -20 -20 -16
-20 -20 -20 -20 -20 -20 -20 -20 -20 -20 -20 -20 -20 -20 -20 -20 -20 -20 -20 -20 -20 -20 -20 -20 -20 -20 -20 -20 -20 -20 -20 -20 -20 -19 -6 -16 -20 -20 -20 -20 -20 -20 -20
-20 -20 -20 -20 -20 -20 -20 -20 -20 -20 -20 -20 -20 -20 -20 -20 -20 -20 -20 -20 -20 3 -14 -13 -12 -20 -20 -20 -20 -20 -13 -4 -12 -7 -1 -8 -19 -20 -20 -20 -20 -20 -20
-20 -20 -20 -20 -20 -7 -19 -20 -20 -20 -20 9 2 -1 -17 -1 5 1 7 7 12 14 -9 10 13 6 -8 -20 -20 -20 -9 -2 2 -2 -10 -15 -8 -20 -20 -20 -19 -1 -6
-20 -20 -3 -19 6 6 -14 -20 4 9 9 11 11 11 11 12 3 10 10 11 15 10 7 4 12 -8 -20 -2 -12 -4 -3 -0 -4 -6 -20 -20 -20 -20 -20 -9 -6 9 -1
-12 -13 -2 9 -13 -5 3 -6 -1 10 9 11 -11 2 7 8 7 0 11 -8 9 12 -13 9 10 6 -11 -10 -11 -7 6 1 -2 -11 -4 -20 -20 -20 -20 -16 8 5 -14
-11 -10 -17 -13 -10 -15 -20 -11 6 3 -1 -20 -15 -20 -20 -19 -14 -7 -2 -15 -7 -9 -20 -13 -10 -7 5 -6 -16 -8 -17 5 8 7 7 -20 -20 -20 -20 -20 -20 -20 -11
-20 -20 -20 -20 -20 -17 -20 -20 -20 -13 -18 -20 -12 -15 -20 -20 -14 -5 -8 -3 0 0 -1 -0 0 -0 -6 1 -20 1 -20 -20 7 7 -5 -20 -15 -20 -12 -18 -20 -20 0
-20 -20 -20 -20 -20 -20 -20 -20 -20 -20 -20 -6 -20 -5 -20 -8 -10 -19 -16 6 4 -0 -20 1 4 3 5 2 -0 -17 -20 -17 -8 -17 0 -4 1 12 -17 -20 -3 8 8
-20 -20 -20 -20 -20 -20 -20 -20 -20 -20 -20 -20 -20 -15 -2 -6 -4 -3 -2 -16 -20 -1 -10 -2 -9 -2 4 3 -6 2 -16 10 7 4 -2 4 7 8 5 4 5 -12 -7
-20 -20 -20 -20 -20 -20 -20 -20 -20 -20 -20 -20 9 -11 -4 -6 -4 -3 -3 -19 -19 -19 -15 -4 5 2 -15 -20 -20 -20 -20 -20 -20 -0 8 7 10 5 6 5 3 6 -4